• In Deutschland
  • Länderverzeichnis
  • Für 7 Tage
  • Wassertemperatur
  • Satellitenkarten
  • Wetterkarte
  • Widgets
  • user-avatar
    Anmelden

    Stündliche Wetter Ch'ŏngjin

    Heute, 16 Januar, Dienstag

    Zeit Temperatur Niederschläge Wind Luftdruck Luftfeuchtigkeit
    00:00 -4°C° 0 mm 3 m/S 765 mmHg 62%
    01:00 -4°C° 0,2 mm 3 m/S 765 mmHg 69%
    02:00 -2°C° 0,2 mm 3 m/S 765 mmHg 77%
    03:00 -3°C° 0 mm 4 m/S 765 mmHg 85%
    04:00 -2°C° 0,2 mm 3 m/S 764 mmHg 87%
    05:00 -4°C° 0,2 mm 3 m/S 764 mmHg 89%
    06:00 -4°C° 0,2 mm 3 m/S 763 mmHg 91%
    07:00 -2°C° 0,2 mm 3 m/S 763 mmHg 88%
    08:00 -2°C° 0,2 mm 3 m/S 763 mmHg 85%
    09:00 -2°C° 0 mm 3 m/S 763 mmHg 82%
    10:00 0°C° 0,1 mm 3 m/S 762 mmHg 75%
    11:00 +1°C° 0,1 mm 3 m/S 762 mmHg 67%
    12:00 +1°C° 0,1 mm 4 m/S 761 mmHg 60%
    13:00 +1°C° 0 mm 4 m/S 761 mmHg 60%
    14:00 +1°C° 0 mm 4 m/S 761 mmHg 60%
    15:00 +1°C° 0 mm 4 m/S 760 mmHg 61%
    16:00 -1°C° 0 mm 4 m/S 761 mmHg 68%
    17:00 -2°C° 0 mm 3 m/S 762 mmHg 76%
    18:00 -4°C° 0 mm 3 m/S 762 mmHg 84%
    19:00 -5°C° 0 mm 3 m/S 763 mmHg 83%
    20:00 -4°C° 0 mm 2 m/S 763 mmHg 83%
    21:00 -5°C° 0 mm 2 m/S 763 mmHg 82%
    22:00 -3°C° 0 mm 1 m/S 764 mmHg 82%
    23:00 -3°C° 0 mm 1 m/S 764 mmHg 81%

    Morgen, 17 Januar, Mittwoch

    Zeit Temperatur Niederschläge Wind Luftdruck Luftfeuchtigkeit
    00:00 -3°C° 0 mm 1 m/S 764 mmHg 81%
    01:00 -3°C° 0 mm 1 m/S 764 mmHg 81%
    02:00 -3°C° 0 mm 1 m/S 764 mmHg 82%
    03:00 -3°C° 0 mm 1 m/S 764 mmHg 83%
    04:00 -5°C° 0 mm 2 m/S 764 mmHg 83%
    05:00 -5°C° 0 mm 2 m/S 764 mmHg 84%
    06:00 -5°C° 0 mm 2 m/S 764 mmHg 85%
    07:00 -4°C° 0,1 mm 2 m/S 764 mmHg 85%
    08:00 -4°C° 0,1 mm 2 m/S 764 mmHg 85%
    09:00 -4°C° 0,1 mm 3 m/S 764 mmHg 85%
    10:00 -1°C° 0,1 mm 3 m/S 763 mmHg 84%
    11:00 0°C° 0,1 mm 3 m/S 763 mmHg 82%
    12:00 +2°C° 0,1 mm 3 m/S 762 mmHg 81%
    13:00 +2°C° 0 mm 3 m/S 762 mmHg 81%
    14:00 +2°C° 0 mm 3 m/S 761 mmHg 82%
    15:00 +2°C° 0 mm 3 m/S 761 mmHg 83%
    16:00 +2°C° 0 mm 3 m/S 761 mmHg 86%
    17:00 +1°C° 0 mm 3 m/S 761 mmHg 90%
    18:00 0°C° 0 mm 3 m/S 761 mmHg 93%
    19:00 0°C° 0 mm 3 m/S 761 mmHg 92%
    20:00 -1°C° 0 mm 2 m/S 761 mmHg 92%
    21:00 -1°C° 0 mm 2 m/S 761 mmHg 91%
    22:00 -1°C° 0 mm 2 m/S 761 mmHg 90%
    23:00 -2°C° 0 mm 2 m/S 761 mmHg 88%

    übermorgen, 18 Januar, Donnerstag

    Zeit Temperatur Niederschläge Wind Luftdruck Luftfeuchtigkeit
    00:00 -2°C° 0 mm 2 m/S 760 mmHg 86%
    01:00 -4°C° 0 mm 3 m/S 761 mmHg 83%
    02:00 -4°C° 0 mm 4 m/S 761 mmHg 80%
    03:00 -5°C° 0 mm 4 m/S 761 mmHg 77%
    04:00 -5°C° 0 mm 4 m/S 761 mmHg 77%
    05:00 -7°C° 0 mm 4 m/S 761 mmHg 77%
    06:00 -7°C° 0 mm 5 m/S 761 mmHg 77%
    07:00 -7°C° 0 mm 5 m/S 762 mmHg 74%
    08:00 -7°C° 0 mm 5 m/S 762 mmHg 71%
    09:00 -7°C° 0 mm 5 m/S 763 mmHg 68%
    10:00 -6°C° 0 mm 5 m/S 763 mmHg 60%
    11:00 -5°C° 0 mm 5 m/S 763 mmHg 53%
    12:00 -2°C° 0 mm 5 m/S 763 mmHg 45%
    13:00 -2°C° 0 mm 5 m/S 763 mmHg 45%
    14:00 -2°C° 0 mm 5 m/S 763 mmHg 45%
    15:00 -3°C° 0 mm 6 m/S 763 mmHg 45%
    16:00 -5°C° 0 mm 5 m/S 764 mmHg 51%
    17:00 -6°C° 0 mm 5 m/S 765 mmHg 57%
    18:00 -8°C° 0 mm 5 m/S 765 mmHg 64%
    19:00 -8°C° 0 mm 4 m/S 766 mmHg 65%
    20:00 -9°C° 0 mm 4 m/S 766 mmHg 66%
    21:00 -9°C° 0 mm 4 m/S 767 mmHg 67%
    22:00 -9°C° 0 mm 3 m/S 767 mmHg 65%
    23:00 -9°C° 0 mm 3 m/S 767 mmHg 64%

    19 Januar, Freitag

    Zeit Temperatur Niederschläge Wind Luftdruck Luftfeuchtigkeit
    00:00 -8°C° 0 mm 2 m/S 768 mmHg 63%
    01:00 -8°C° 0 mm 2 m/S 768 mmHg 63%
    02:00 -8°C° 0 mm 2 m/S 767 mmHg 62%
    03:00 -8°C° 0 mm 2 m/S 767 mmHg 61%
    04:00 -8°C° 0 mm 2 m/S 767 mmHg 60%
    05:00 -8°C° 0 mm 2 m/S 767 mmHg 58%
    06:00 -8°C° 0 mm 2 m/S 767 mmHg 56%
    07:00 -8°C° 0 mm 3 m/S 767 mmHg 54%
    08:00 -7°C° 0 mm 3 m/S 766 mmHg 51%
    09:00 -7°C° 0 mm 3 m/S 766 mmHg 48%
    10:00 -5°C° 0 mm 4 m/S 766 mmHg 46%
    11:00 -2°C° 0 mm 4 m/S 765 mmHg 43%
    12:00 0°C° 0 mm 5 m/S 764 mmHg 40%
    13:00 0°C° 0 mm 4 m/S 763 mmHg 40%
    14:00 0°C° 0 mm 4 m/S 762 mmHg 40%
    15:00 +1°C° 0 mm 3 m/S 762 mmHg 40%
    16:00 0°C° 0 mm 3 m/S 762 mmHg 47%
    17:00 -2°C° 0 mm 3 m/S 762 mmHg 55%
    18:00 -4°C° 0 mm 2 m/S 762 mmHg 62%
    19:00 -5°C° 0 mm 3 m/S 763 mmHg 64%
    20:00 -6°C° 0 mm 3 m/S 763 mmHg 67%
    21:00 -8°C° 0 mm 4 m/S 764 mmHg 69%
    22:00 -8°C° 0 mm 4 m/S 764 mmHg 69%
    23:00 -9°C° 0 mm 4 m/S 764 mmHg 70%

    20 Januar, Samstag

    Zeit Temperatur Niederschläge Wind Luftdruck Luftfeuchtigkeit
    00:00 -9°C° 0 mm 4 m/S 764 mmHg 70%
    01:00 -8°C° 0 mm 3 m/S 764 mmHg 69%
    02:00 -9°C° 0 mm 3 m/S 764 mmHg 68%
    03:00 -9°C° 0 mm 3 m/S 764 mmHg 67%
    04:00 -9°C° 0 mm 3 m/S 764 mmHg 64%
    05:00 -9°C° 0 mm 3 m/S 764 mmHg 62%
    06:00 -11°C° 0 mm 4 m/S 765 mmHg 60%
    07:00 -11°C° 0 mm 4 m/S 765 mmHg 54%
    08:00 -11°C° 0 mm 4 m/S 766 mmHg 49%
    09:00 -11°C° 0 mm 4 m/S 766 mmHg 43%
    10:00 -10°C° 0 mm 4 m/S 766 mmHg 40%
    11:00 -8°C° 0 mm 5 m/S 766 mmHg 36%
    12:00 -7°C° 0 mm 5 m/S 766 mmHg 33%
    13:00 -7°C° 0 mm 5 m/S 766 mmHg 34%
    14:00 -7°C° 0 mm 5 m/S 765 mmHg 34%
    15:00 -7°C° 0 mm 5 m/S 765 mmHg 35%
    16:00 -8°C° 0 mm 4 m/S 765 mmHg 40%
    17:00 -9°C° 0 mm 4 m/S 766 mmHg 45%
    18:00 -9°C° 0 mm 3 m/S 766 mmHg 51%
    19:00 -10°C° 0 mm 3 m/S 767 mmHg 53%
    20:00 -12°C° 0 mm 3 m/S 768 mmHg 54%
    21:00 -12°C° 0 mm 3 m/S 768 mmHg 56%
    22:00 -12°C° 0 mm 3 m/S 768 mmHg 56%
    23:00 -13°C° 0 mm 3 m/S 768 mmHg 56%

    21 Januar, Sonntag

    Zeit Temperatur Niederschläge Wind Luftdruck Luftfeuchtigkeit
    00:00 -14°C° 0 mm 4 m/S 769 mmHg 56%
    01:00 -13°C° 0 mm 3 m/S 769 mmHg 55%
    02:00 -14°C° 0 mm 3 m/S 769 mmHg 55%
    03:00 -14°C° 0 mm 3 m/S 769 mmHg 54%
    04:00 -14°C° 0 mm 3 m/S 769 mmHg 53%
    05:00 -14°C° 0 mm 3 m/S 769 mmHg 53%
    06:00 -14°C° 0 mm 3 m/S 769 mmHg 53%
    07:00 -13°C° 0 mm 3 m/S 769 mmHg 51%
    08:00 -12°C° 0 mm 3 m/S 769 mmHg 50%
    09:00 -10°C° 0 mm 3 m/S 769 mmHg 49%
    10:00 -8°C° 0 mm 3 m/S 769 mmHg 50%
    11:00 -7°C° 0 mm 3 m/S 768 mmHg 51%
    12:00 -5°C° 0 mm 3 m/S 767 mmHg 52%
    13:00 -5°C° 0,1 mm 3 m/S 767 mmHg 60%
    14:00 -5°C° 0,1 mm 4 m/S 766 mmHg 68%
    15:00 -5°C° 0,1 mm 4 m/S 765 mmHg 76%
    16:00 -7°C° 0,3 mm 4 m/S 766 mmHg 81%
    17:00 -7°C° 0,3 mm 4 m/S 766 mmHg 85%
    18:00 -7°C° 0,3 mm 3 m/S 766 mmHg 89%
    19:00 -7°C° 0,3 mm 3 m/S 766 mmHg 90%
    20:00 -7°C° 0,3 mm 3 m/S 766 mmHg 91%
    21:00 -7°C° 0,3 mm 3 m/S 766 mmHg 91%
    22:00 -8°C° 0,2 mm 3 m/S 765 mmHg 91%
    23:00 -8°C° 0,2 mm 3 m/S 765 mmHg 91%
    Mehr zeigen